[ ตารางข้อมูล ] [ Min-Max ] [ วันนี้4 ] [ วันนี้2 ] [ เทียบ3วัน A ] [ เทียบ4วัน B ]   

วันนี้2   [ ◀ ช่วงเก่ากว่า ] [ ช่วงที่ 261 ] [ ช่วงใหม่กว่า ▶ ] [ ล่าสุด ]    [ 3 ชั่วโมง ] [ 6 ชั่วโมง ] [ 12 ชั่วโมง ] [ 24 ชั่วโมง ]   วันนี้2

อุณภูมิตู้ Knockdown4529  ราย 3 ชั่วโมง  ที่วัดได้ ในช่วงวันเวลา 04/04/2026 (17:29) ถึง 04/04/2026 (20:29) 
ความชื้นในตู้ Knockdown4529  ราย 3 ชั่วโมง  ที่วัดได้ ในช่วงวันเวลา 04/04/2026 (17:29) ถึง 04/04/2026 (20:29) 

 
DS18B20SHTC3 
IDDate d/m/Y & Timedata1
สูง
data2
ต่ำ
data3
นอก
temp
pcb
hum
pcb
Time
 8824  04/04/2026 20:26:28  29.2  29.2  28.7  28.9  68.7  20:26 
 8823  04/04/2026 20:21:45  29.2  29.2  28.6  29.1  68.6  20:21 
 8822  04/04/2026 20:17:03  29.2  29.2  28.7  29.1  68.4  20:17 
 8821  04/04/2026 20:12:21  29.3  29.2  28.8  29.4  68.5  20:12 
 8820  04/04/2026 20:07:39  29.4  29.3  28.9  29.3  68.5  20:07 
 8819  04/04/2026 20:02:57  29.4  29.3  28.9  29.2  68.4  20:02 
 8818  04/04/2026 19:58:15  29.4  29.3  28.8  29.5  68.4  19:58 
 8817  04/04/2026 19:53:33  29.5  29.2  28.9  29.4  68.1  19:53 
 8816  04/04/2026 19:48:51  29.6  29.4  29.0  29.4  67.8  19:48 
 8815  04/04/2026 19:44:10  29.7  29.4  29.0  29.5  67.6  19:44 
 8814  04/04/2026 19:39:27  29.7  29.4  29.0  29.6  67.3  19:39 
 8813  04/04/2026 19:34:43  29.8  29.5  29.1  29.5  67.2  19:34 
 8812  04/04/2026 19:30:01  29.9  29.4  29.0  29.7  66.9  19:30 
 8811  04/04/2026 19:25:19  30.0  29.6  29.0  29.9  66.8  19:25 
 8810  04/04/2026 19:20:37  30.1  29.6  29.2  29.7  66.7  19:20 
 8809  04/04/2026 19:15:55  30.2  29.6  29.1  30.0  66.5  19:15 
 8808  04/04/2026 19:11:12  30.2  29.8  29.3  29.9  66.2  19:11 
 8807  04/04/2026 19:06:30  30.4  29.8  29.4  30.1  66.1  19:06 
 8806  04/04/2026 19:01:48  30.5  29.9  29.4  30.2  65.8  19:01 
 8805  04/04/2026 18:57:07  30.7  30.2  29.4  30.6  66.6  18:57 
 8804  04/04/2026 18:52:25  30.9  30.6  29.4  31.0  68.2  18:52 
 8803  04/04/2026 18:47:43  31.0  30.9  29.5  31.0  69.2  18:47 
 8802  04/04/2026 18:43:02  31.1  31.0  29.7  31.1  69.0  18:43 
 8801  04/04/2026 18:38:17  31.1  31.0  29.7  31.1  69.0  18:38 

Data every 5 minute.


ใช้เวลาประมวลผล 0.00198 วินาที